This is the latest recevied weather packets stored in our database for station/object W0CHP-13. If no packets are shown the sender has not sent any weather packets the latest 10 day(s).
| Time | Temp. | Humidity | Pressure | Rain* | Wind** | Luminosity | Snow |
|---|---|---|---|---|---|---|---|
| 1788055216 | 22.78° C | 78% | 1010.5 hPa | 0 mm | - | 0 W/m² | - |
| 1788054615 | 22.78° C | 76% | 1010.3 hPa | 0 mm | - | 0 W/m² | - |
| 1788054017 | 23.33° C | 75% | 1009.9 hPa | 0 mm | - | 0 W/m² | - |
| 1788053415 | 23.33° C | 74% | 1009.9 hPa | 0 mm | - | 0 W/m² | - |
| 1788052816 | 23.89° C | 72% | 1009.6 hPa | 0 mm | - | 0 W/m² | - |
| 1788052217 | 24.44° C | 70% | 1009.6 hPa | 0 mm | - | 0 W/m² | - |
| 1788051616 | 24.44° C | 68% | 1009.5 hPa | 0 mm | - | 0 W/m² | - |
| 1788051018 | 25° C | 66% | 1009.6 hPa | 0 mm | - | 0 W/m² | - |
| 1788050417 | 25° C | 66% | 1009.6 hPa | 0 mm | - | 1 W/m² | - |
| 1788049815 | 25° C | 65% | 1009.6 hPa | 0 mm | - | 2 W/m² | - |
| 1788049217 | 25° C | 65% | 1009.6 hPa | 0 mm | - | 6 W/m² | - |
| 1788048616 | 25.56° C | 64% | 1009.6 hPa | 0 mm | - | 12 W/m² | - |
| 1788048017 | 25.56° C | 62% | 1009.5 hPa | 0 mm | - | 13 W/m² | - |
| 1788047427 | 26.11° C | 61% | 1009.6 hPa | 0 mm | - | 18 W/m² | - |
| 1788046817 | 26.67° C | 58% | 1009.5 hPa | 0 mm | - | 36 W/m² | - |
| 1788046215 | 26.67° C | 58% | 1009.2 hPa | 0 mm | - | 32 W/m² | - |
| 1788045618 | 27.22° C | 58% | 1009.2 hPa | 0 mm | - | 51 W/m² | - |
| 1788045016 | 27.22° C | 56% | 1009.3 hPa | 0 mm | - | 52 W/m² | - |
| 1788044418 | 27.78° C | 57% | 1008.9 hPa | 0 mm | - | 110 W/m² | - |
| 1788043817 | 27.78° C | 56% | 1009 hPa | 0 mm | - | 64 W/m² | - |
| 1788043215 | 27.78° C | 56% | 1008.9 hPa | 0 mm | - | 105 W/m² | - |
| 1788042618 | 28.33° C | 56% | 1009.2 hPa | 0 mm | - | 113 W/m² | - |
| 1788042016 | 28.33° C | 56% | 1008.9 hPa | 0 mm | - | 148 W/m² | - |
| 1788041415 | 28.89° C | 56% | 1009.2 hPa | 0 mm | - | 161 W/m² | - |
| 1788040817 | 28.89° C | 60% | 1008.9 hPa | 0 mm | - | 289 W/m² | - |
* Rain latest hour (hover to see other rain measurements)
** Current wind speed in m/s (hover to see current wind gust speed)